Location: Unspecified
(0.0000°N, 0.0000°E)
Time: 01:27:17
(UTC+00:00)

Transit 2A - Pass Details

Date: 19 November 2019
Orbit: 602 x 957 km, 66.7° (Epoch: 11 December)

Event Time Altitude Azimuth Distance (km) Brightness Sun altitude
Rises 09:55:07 0° 187° (S) 3,549 9.7 56.7°
Reaches altitude 10° 09:57:53 10° 179° (S) 2,563 9.2 57.3°
Maximum altitude 10:03:25 40° 111° (ESE) 1,213 8.7 58.4°
Drops below altitude 10° 10:08:28 10° 42° (NE) 2,339 8.7 59.3°
Sets 10:10:53 0° 35° (NE) 3,206 9.2 59.8°
